GFSGBSN_925_spd_000.txt.gz
Wind_Speed
7 9 11 11 13 14 14 13 9 7 7 6 5 3 3 4 5 6 5 5 6 6 7 8 10 12 3 4 7 4 7 8 6 11 7 5 5 8 7 3 2 5 3 2 2 3 3
8 9 10 12 14 15 15 13 10 7 7 6 6 3 4 6 6 5 5 5 5 6 8 10 11 8 5 6 3 4 5 6 7 8 8 11 7 6 4 6 8 3 4 1 2 4 6
8 10 11 13 15 16 15 14 11 7 7 6 6 3 7 8 8 6 4 4 5 7 8 5 3 3 0 5 2 4 2 5 5 9 9 9 7 7 6 2 3 4 9 13 9 2 9
8 10 13 14 16 16 15 15 14 9 6 6 5 5 8 8 7 6 4 4 5 5 4 2 5 1 3 2 4 6 8 4 4 5 7 7 3 2 5 1 6 12 7 7 5 3 3
9 11 12 14 15 16 17 18 17 11 8 8 7 6 7 7 5 4 4 6 5 3 2 5 6 8 7 3 1 7 5 7 6 4 4 5 7 4 4 10 10 3 10 11 8 6 1
10 12 14 15 17 18 18 19 19 13 9 7 7 6 4 3 4 5 5 6 6 4 5 7 13 2 2 3 4 8 7 7 8 9 10 5 5 8 9 10 9 11 10 11 12 8 9
9 11 13 15 16 17 19 19 20 15 11 8 5 5 5 4 3 1 1 4 5 4 8 10 8 6 5 1 6 9 11 8 6 7 5 6 7 8 9 8 9 11 13 15 14 8 15
8 11 13 14 15 17 19 20 21 16 11 9 4 2 4 3 2 4 6 5 6 5 3 3 4 5 2 5 4 12 16 5 5 7 7 8 4 6 6 7 9 15 15 12 13 17 15
7 10 13 14 15 17 19 20 21 16 10 11 5 0 1 1 2 3 5 6 5 8 5 2 2 4 3 7 4 10 11 8 5 5 5 6 6 6 7 7 10 14 8 13 17 18 15
5 8 12 14 15 16 18 20 21 18 11 11 8 3 2 2 2 3 3 5 7 6 4 4 3 3 3 3 0 4 8 5 3 5 7 5 3 6 8 6 10 11 13 16 17 14 10
3 7 11 13 14 15 17 20 22 20 9 12 9 5 3 2 3 1 1 3 6 2 2 2 4 4 3 5 7 4 4 4 5 7 4 4 6 8 10 7 9 10 16 19 19 15 9
3 5 8 11 14 15 16 20 21 22 8 10 12 5 4 2 1 1 1 2 3 3 0 4 1 2 3 4 4 5 3 2 2 5 3 4 1 3 7 11 14 12 17 19 3 1 3
2 4 7 11 14 15 16 20 22 24 8 3 13 9 6 3 3 0 1 3 3 2 2 5 2 2 2 5 2 5 4 11 10 6 5 8 6 4 4 13 11 16 14 4 4 2 3
3 3 5 8 12 14 15 18 21 25 8 2 6 9 9 6 2 0 2 3 2 4 3 3 2 1 3 7 5 5 8 4 15 14 10 6 3 3 7 5 7 13 7 2 4 4 9
5 4 4 7 10 13 14 17 21 26 10 2 3 2 5 8 3 1 3 1 3 6 5 6 2 4 6 3 3 4 6 7 7 12 8 6 2 8 3 3 5 6 5 5 4 1 1
6 4 4 5 7 10 12 15 19 24 9 2 5 2 7 6 2 3 1 3 3 4 4 2 3 2 5 6 6 6 6 7 4 6 8 4 7 9 2 9 13 7 6 3 1 3 5
8 5 4 4 6 9 12 14 18 22 10 3 3 2 6 3 2 3 1 3 5 4 6 6 5 2 3 5 5 5 4 8 8 9 11 8 3 8 13 2 10 3 6 4 7 5 4
8 6 5 4 5 7 10 12 16 21 13 5 4 1 5 1 2 2 2 3 3 4 2 4 4 6 5 5 5 5 5 6 7 9 8 6 3 5 18 17 3 5 9 8 2 8 9
8 8 5 3 4 6 9 11 14 18 21 8 3 4 2 1 1 1 5 4 5 1 5 3 3 4 3 4 3 4 5 4 7 7 7 9 2 5 8 6 2 14 19 18 14 2 8
6 7 5 4 3 4 7 9 11 14 17 7 1 2 3 3 3 6 5 4 3 3 3 2 2 2 2 4 1 4 7 4 1 6 6 1 6 6 8 15 18 18 22 24 19 12 15
7 8 6 3 3 4 5 8 10 11 13 7 2 2 3 1 1 4 3 1 4 2 1 2 1 1 3 3 6 4 5 9 7 4 2 2 5 11 17 19 20 23 24 24 23 20 18
8 8 7 5 4 5 5 6 8 10 9 2 4 3 1 2 2 2 2 2 3 4 3 3 4 5 4 4 4 11 13 11 8 11 5 3 4 3 9 19 20 20 23 26 25 21 21
11 9 8 6 5 4 5 6 7 8 9 3 2 1 2 3 3 2 2 2 1 4 3 3 7 9 6 8 9 10 12 14 16 17 15 14 3 2 7 10 12 11 15 15 13 17 17
16 12 10 8 6 5 4 5 5 5 6 5 4 6 3 0 2 4 3 4 4 4 4 6 6 4 6 5 10 9 12 16 18 19 15 10 4 3 4 3 6 7 21 24 21 16 17
19 17 15 12 9 7 6 5 5 3 3 3 3 3 2 1 4 7 7 7 8 6 6 8 9 6 8 6 3 6 4 4 6 10 9 6 5 2 3 9 18 15 18 11 18 13 15
22 20 19 17 14 12 9 7 6 5 2 1 2 1 1 4 4 10 9 10 6 6 8 6 6 3 3 2 2 1 3 4 4 7 8 8 8 1 4 13 15 2 17 19 12 15 11
26 24 23 20 19 16 13 10 8 7 5 4 2 3 4 1 5 6 5 6 7 5 5 5 1 1 3 2 1 4 5 8 5 3 3 2 4 6 10 9 9 14 15 12 7 5 17
28 27 26 24 22 19 17 14 11 9 7 6 5 4 4 2 6 9 10 11 8 5 3 2 3 2 2 3 3 4 4 4 4 7 7 8 6 4 4 5 10 3 8 3 12 15 15
25 26 26 26 25 23 21 18 16 13 10 8 6 6 4 4 5 4 10 17 15 18 8 2 4 4 4 4 4 3 3 2 3 9 15 6 7 7 9 8 19 23 24 15 24 18 18

GFSGBSN_925_spd_003.txt.gz
Wind_Speed
9 10 12 14 14 14 13 12 8 7 7 6 5 3 3 4 5 7 7 5 4 3 2 6 9 7 7 3 3 6 10 12 17 19 17 9 8 6 5 3 6 4 4 1 7 7 7
9 11 13 14 14 14 14 12 8 5 6 6 6 3 5 7 7 7 5 5 4 1 3 7 7 7 2 0 2 1 7 13 14 19 15 12 5 6 5 3 2 3 5 2 6 6 6
10 13 14 15 15 15 15 14 10 7 7 7 6 5 6 8 8 8 6 3 2 2 4 6 6 5 1 3 0 5 5 4 8 8 5 8 11 5 6 1 1 6 5 7 6 8 4
11 12 14 15 15 16 16 17 12 8 8 8 7 6 7 8 9 7 5 3 2 3 5 7 7 0 1 2 1 6 11 4 4 8 5 6 9 5 1 4 3 3 2 2 10 8 5
10 12 14 15 16 17 17 19 14 10 8 8 8 8 8 9 7 5 4 4 3 4 6 8 3 2 3 2 3 6 3 7 16 14 14 11 7 4 2 3 4 6 4 7 8 7 3
10 12 13 14 15 17 19 20 16 11 10 9 9 9 6 5 4 3 2 3 5 5 6 9 10 3 2 2 2 7 7 13 11 11 8 4 3 2 5 7 3 6 6 6 4 4 6
10 11 14 15 16 18 20 22 18 13 10 8 7 8 7 6 4 4 2 4 5 3 5 3 3 4 6 6 8 6 14 11 9 5 4 4 6 3 4 4 3 6 7 5 5 10 10
9 11 13 14 15 18 20 22 20 12 11 7 4 5 6 5 4 4 5 1 3 0 3 0 5 5 2 4 4 10 16 7 5 5 4 7 4 3 5 9 7 7 6 6 4 11 8
7 10 13 14 16 18 21 22 22 13 11 9 3 2 2 2 2 3 6 5 3 5 1 2 1 3 3 4 2 5 5 6 4 6 7 3 2 5 6 6 8 5 5 6 7 10 11
6 10 13 14 15 16 19 21 23 16 11 10 4 2 4 3 2 2 2 2 5 4 3 4 5 1 2 2 1 2 3 2 4 3 5 2 2 6 7 3 6 5 7 9 11 7 3
5 7 10 14 15 15 17 20 22 18 8 11 7 4 5 2 2 2 3 4 8 2 4 1 3 1 4 5 5 1 1 0 3 5 3 4 2 4 5 4 4 7 5 12 14 9 2
2 5 9 12 15 15 17 20 22 20 6 11 10 5 4 2 1 0 3 4 3 6 2 2 1 2 1 3 1 7 3 4 1 5 3 5 4 4 1 7 5 7 7 11 5 3 3
0 2 6 10 13 15 15 18 22 21 6 5 10 8 3 1 1 2 2 3 4 5 2 3 3 4 3 4 4 3 7 13 6 6 6 7 4 3 2 5 7 12 6 4 6 4 4
1 2 4 8 12 14 15 17 21 22 8 2 5 6 9 4 1 1 2 5 3 6 6 2 3 3 3 5 1 5 5 4 9 7 3 4 6 6 7 3 4 5 3 4 2 1 5
2 2 3 6 9 13 15 16 19 22 10 2 3 2 2 7 2 2 4 4 5 3 5 6 2 3 3 1 2 4 6 5 5 7 5 6 4 8 3 1 3 6 4 2 2 2 3
4 2 4 5 8 11 14 16 18 22 10 2 3 2 5 5 3 3 4 0 4 6 7 4 4 5 5 6 7 5 5 5 2 7 5 4 5 5 6 3 4 4 0 5 3 2 3
6 3 2 4 7 10 13 15 19 22 10 5 2 3 7 4 4 4 3 3 5 4 5 6 7 5 6 5 5 4 5 5 7 8 8 6 3 8 6 1 4 2 4 2 2 1 3
7 6 3 1 4 8 11 15 18 22 19 7 4 3 6 5 3 2 2 4 1 1 2 3 6 6 5 6 5 6 4 4 4 5 4 3 2 3 9 15 9 6 7 6 3 5 4
8 7 5 2 2 5 9 12 15 19 23 8 2 2 2 2 3 2 2 4 5 7 6 6 3 5 3 3 3 6 2 3 4 3 3 2 3 3 8 6 7 6 15 12 6 0 7
8 9 5 2 1 4 7 10 12 14 18 11 2 3 4 4 1 6 4 4 4 3 3 3 2 2 4 6 6 4 5 5 5 2 6 6 2 5 5 6 5 10 19 21 11 2 8
7 8 6 3 0 4 6 8 10 12 14 7 2 1 4 1 5 6 6 4 6 4 2 1 1 1 4 3 5 3 6 7 6 7 4 6 5 6 8 7 10 14 19 20 15 17 12
8 8 6 4 1 2 5 8 10 11 11 4 2 3 4 2 6 7 5 5 6 5 5 3 4 8 8 3 2 4 5 5 4 4 5 2 6 2 6 11 10 8 20 21 19 14 10
9 8 7 4 1 1 4 7 9 11 9 5 4 2 4 6 3 4 3 3 5 5 3 2 4 3 5 1 2 2 2 5 8 9 6 5 3 2 15 4 5 7 13 4 6 14 13
13 10 9 6 3 1 3 5 7 9 11 4 5 3 4 2 3 2 5 5 5 3 1 4 5 4 4 6 4 6 6 6 5 14 6 4 3 2 4 3 4 8 14 21 16 9 7
15 14 11 9 6 3 0 3 6 6 5 7 6 4 3 1 2 5 5 2 6 4 3 2 3 4 2 6 4 6 5 7 6 6 5 5 5 1 2 3 8 9 9 3 11 17 4
19 17 15 13 10 6 3 2 3 5 4 3 6 5 5 5 4 4 3 3 2 3 5 3 4 8 6 3 3 1 3 4 4 6 7 7 6 3 1 4 7 8 3 6 7 11 5
22 20 18 16 14 12 8 5 2 2 4 3 4 4 2 3 4 0 1 2 1 1 1 1 2 4 4 2 1 4 4 3 3 4 4 3 3 2 2 5 7 7 5 1 4 9 6
25 22 22 20 18 16 13 10 6 3 2 1 1 4 2 2 4 3 2 3 2 2 4 3 5 4 3 2 3 3 4 4 2 4 3 4 2 4 3 4 8 2 3 3 6 4 7
25 26 24 23 21 19 17 14 11 8 6 4 1 1 3 2 4 5 10 10 7 2 3 0 6 2 5 3 2 2 3 1 4 5 4 3 7 4 8 6 5 10 12 10 15 18 8

GFSGBSN_925_spd_006.txt.gz
Wind_Speed
8 10 12 13 13 14 13 10 7 5 4 4 4 3 3 5 7 8 9 6 4 1 2 3 7 10 7 5 1 7 14 18 18 21 15 6 8 5 4 2 3 3 2 3 5 5 4
8 10 12 12 12 13 13 12 8 7 6 5 4 4 6 9 9 8 7 5 4 3 2 4 6 9 4 3 4 6 12 14 16 18 14 11 4 5 2 4 3 2 3 4 7 5 4
8 10 12 12 12 13 14 12 8 7 7 6 6 6 7 7 8 7 7 8 7 5 3 3 5 8 2 4 5 11 7 6 9 14 5 8 7 8 4 4 3 2 4 7 7 3 4
9 11 11 12 13 14 16 12 8 7 8 7 7 7 7 7 7 8 9 8 6 3 2 3 6 4 4 3 5 8 11 3 9 13 14 10 6 3 1 2 6 3 4 4 6 7 3
9 10 11 13 15 16 18 13 10 9 8 8 8 8 8 8 8 8 8 6 4 3 5 6 3 1 6 3 3 6 11 8 16 14 14 12 4 0 5 4 5 6 4 4 9 5 4
8 10 11 14 16 18 20 16 11 10 8 8 9 8 8 9 9 8 6 4 4 6 4 2 1 2 4 1 3 10 13 11 4 7 9 2 4 3 5 5 1 4 5 6 1 6 5
8 11 12 14 16 19 21 20 12 11 8 7 9 9 9 9 8 8 6 2 6 4 2 2 1 3 2 8 2 6 15 10 4 1 3 4 6 2 4 2 4 1 3 3 4 3 7
8 10 12 14 17 19 20 22 14 11 9 6 7 8 8 8 8 7 6 5 3 1 3 3 3 3 3 2 2 7 11 4 4 3 5 7 3 2 5 5 4 6 3 4 6 6 3
8 10 12 14 15 18 20 22 17 11 11 6 4 5 6 5 5 5 9 4 2 3 2 3 1 1 5 2 2 5 3 3 1 5 4 5 2 2 5 6 7 3 2 4 6 7 3
6 9 12 13 14 16 19 22 20 10 11 7 3 4 4 3 3 3 3 2 2 1 4 2 2 3 3 3 2 4 2 2 5 2 2 1 3 4 6 2 3 4 4 4 6 4 2
5 8 11 13 13 15 18 21 22 11 9 9 5 4 5 3 2 2 0 3 3 2 5 3 1 2 3 3 3 4 5 3 2 4 5 4 2 4 4 3 3 7 7 8 4 4 3
3 4 7 11 14 14 16 20 22 11 7 10 6 4 6 4 2 1 2 3 1 6 1 2 1 1 1 4 5 4 7 7 2 4 3 3 1 3 1 4 1 6 6 5 4 3 3
3 3 6 10 13 14 16 18 21 12 4 6 7 5 4 3 2 0 2 3 4 5 2 2 1 2 3 4 5 5 5 11 5 6 7 6 4 4 2 5 7 8 6 4 5 5 4
4 2 4 8 11 14 15 17 20 16 5 4 5 6 8 3 1 1 2 5 6 4 3 1 1 1 2 2 2 5 4 5 7 6 3 5 7 7 6 2 2 4 5 4 1 0 5
3 2 3 6 9 12 14 17 20 20 6 3 2 2 4 4 2 1 5 5 5 4 3 4 3 3 3 5 3 5 4 3 6 7 4 5 4 5 4 4 2 4 4 1 5 2 3
4 2 1 4 7 10 14 16 19 22 6 2 1 1 5 4 3 3 5 3 2 2 3 4 3 4 3 5 4 3 4 5 3 6 3 3 4 2 6 4 3 3 1 5 4 2 3
7 5 2 1 4 8 12 15 18 21 6 4 2 3 7 5 1 5 4 2 2 1 3 4 4 4 4 3 4 3 3 2 3 5 6 2 2 7 4 3 2 5 4 3 1 4 3
9 7 3 0 3 6 9 13 16 19 13 4 3 3 7 7 4 1 2 2 1 3 5 4 5 4 3 4 4 3 2 3 2 0 2 3 4 3 5 8 2 2 3 5 3 5 3
10 8 6 3 1 4 7 9 12 17 20 3 3 1 5 4 3 2 2 4 4 4 5 4 3 3 3 3 3 3 2 3 3 2 3 0 2 3 7 6 8 4 8 4 3 2 6
11 10 7 4 1 2 5 8 10 12 15 3 3 3 4 4 1 6 4 2 3 4 4 4 2 4 5 4 4 1 6 4 2 1 5 6 3 6 5 5 3 9 15 11 3 2 5
10 10 9 6 3 1 4 7 8 10 11 2 3 2 4 2 5 5 4 1 4 2 2 3 5 6 3 2 4 2 3 5 5 2 1 4 5 4 7 8 5 16 17 16 11 14 6
9 10 9 6 3 1 3 6 7 9 5 5 3 3 4 1 2 5 5 3 2 4 3 3 5 2 6 3 3 2 1 0 5 3 2 2 4 4 11 7 8 17 15 13 13 14 9
11 10 9 7 4 2 4 6 8 10 4 5 3 3 4 4 2 4 2 2 2 5 2 5 5 3 4 1 5 5 5 5 7 6 3 2 3 2 6 5 5 10 8 6 5 7 7
14 11 10 8 6 3 3 5 7 10 12 7 5 4 4 2 3 3 2 3 4 3 4 2 4 5 5 3 3 5 5 4 4 8 7 5 3 2 3 1 4 9 6 7 6 8 6
16 14 11 9 7 4 3 4 5 7 8 10 6 3 3 1 2 4 1 1 3 2 1 2 1 4 8 7 4 6 5 7 5 5 3 4 4 1 1 2 7 11 10 2 2 8 5
18 16 13 11 9 6 3 3 3 5 5 8 12 5 5 5 4 1 1 2 2 0 5 2 3 6 7 4 4 3 2 4 5 5 4 6 5 3 2 4 5 8 5 3 3 6 6
21 18 17 14 12 9 5 2 1 2 4 5 5 6 4 3 4 2 3 4 5 2 2 3 3 2 3 3 2 4 4 2 3 4 3 3 2 3 1 6 8 9 7 1 4 8 5
24 22 19 17 16 13 10 6 4 2 1 3 4 4 3 2 4 1 1 3 1 2 4 3 4 4 3 3 3 4 4 5 1 4 5 5 3 4 3 3 8 0 3 2 6 4 12
26 24 22 20 18 16 14 11 8 5 3 2 3 4 2 3 3 3 7 7 6 7 5 1 5 4 5 3 2 2 3 2 4 5 1 3 7 4 8 7 4 3 12 6 7 16 10

GFSGBSN_925_spd_009.txt.gz
Wind_Speed
6 8 10 10 9 10 10 8 5 3 2 2 1 1 4 7 8 8 8 6 3 3 2 4 8 12 6 4 1 9 15 16 15 19 19 6 9 4 5 3 2 4 2 2 2 1 2
7 8 9 10 10 10 10 7 2 1 2 1 3 5 7 9 9 9 7 5 4 3 5 6 10 11 2 5 7 13 15 14 17 20 18 11 3 1 3 2 3 1 3 5 3 4 2
7 8 10 11 11 13 12 6 3 4 5 5 5 7 8 9 9 8 7 6 5 6 7 10 9 8 3 3 8 11 13 7 13 15 6 7 2 6 2 4 5 3 5 6 2 3 5
6 8 10 11 13 15 12 7 6 7 7 8 8 9 9 10 9 8 8 7 8 9 9 8 9 4 2 4 7 11 14 9 13 15 10 9 8 3 3 2 7 5 5 6 7 1 4
6 7 10 12 14 16 13 9 8 8 9 9 8 9 9 9 9 9 9 9 10 8 6 6 4 4 3 6 6 12 16 11 17 8 14 6 4 3 6 4 5 7 1 3 5 5 4
6 8 10 12 14 17 15 10 9 9 8 8 7 8 9 10 9 8 7 7 8 5 5 4 4 4 7 5 6 10 16 9 3 7 7 8 5 4 5 6 1 3 3 4 3 6 7
5 7 9 11 14 17 18 10 9 8 7 6 8 10 10 10 9 7 5 3 5 6 6 1 2 3 3 7 4 9 14 9 5 7 5 4 6 2 2 1 4 1 2 2 4 3 7
5 7 8 10 14 16 19 13 9 8 6 6 7 9 9 9 10 9 10 7 3 2 3 3 1 2 1 2 5 7 12 5 5 3 3 6 2 1 4 5 4 2 2 4 5 5 3
4 6 8 10 13 16 19 17 8 8 6 5 6 7 7 7 7 14 14 7 3 1 4 5 2 1 3 3 3 5 5 1 4 4 4 5 1 4 3 5 6 4 2 3 5 7 1
3 6 8 10 12 15 19 20 9 7 6 4 5 6 6 5 5 4 5 3 1 0 5 6 5 4 3 1 5 3 6 2 7 2 1 1 2 3 5 3 1 4 2 2 6 4 2
1 5 8 11 12 14 17 20 12 7 8 6 4 5 5 3 6 3 2 1 2 2 5 4 2 2 1 3 1 9 8 3 2 3 5 2 3 6 6 4 2 6 7 4 2 3 2
1 3 7 10 12 14 16 19 16 6 7 7 6 5 6 5 5 3 1 2 2 6 0 2 1 1 3 5 5 4 8 7 3 4 5 4 2 3 2 3 4 8 4 5 4 2 2
3 1 5 9 12 13 15 18 18 8 5 7 7 7 5 4 2 1 1 3 5 6 2 1 1 3 3 4 6 4 5 11 5 5 6 6 4 5 3 5 6 8 6 4 5 5 4
4 2 2 6 10 12 14 17 19 10 5 6 7 8 8 5 2 1 2 5 6 3 1 3 3 3 4 5 5 6 3 5 6 5 3 4 6 5 6 1 2 3 3 4 3 1 5
5 3 2 4 8 11 13 15 19 10 5 5 5 7 5 6 2 2 5 5 6 6 2 2 3 4 5 5 3 4 4 3 3 5 3 4 4 4 1 3 1 3 4 2 6 2 3
6 4 3 4 7 10 12 14 18 12 5 3 3 4 6 5 3 3 5 2 1 1 1 2 3 1 2 5 4 4 3 3 3 6 2 3 4 3 6 2 5 5 2 4 4 3 3
8 6 3 3 5 8 11 12 16 16 5 3 3 4 6 6 2 5 4 4 2 3 2 3 2 3 2 1 3 2 0 2 2 3 6 2 2 6 3 5 1 5 4 5 3 3 3
10 8 5 3 4 7 10 12 14 17 5 4 4 3 8 4 4 1 2 2 2 5 7 5 4 3 3 3 4 3 2 2 1 1 2 2 3 3 3 7 4 4 5 4 3 4 3
10 9 7 3 3 5 8 11 13 14 15 3 3 1 4 3 3 2 1 4 3 4 5 3 3 3 4 2 3 2 2 4 4 3 1 2 2 3 7 6 4 3 3 3 4 3 6
12 11 8 5 3 3 6 9 10 12 12 4 3 3 4 4 0 5 4 2 3 3 3 5 4 5 4 5 6 2 5 5 7 3 6 5 2 6 5 6 5 10 5 3 5 3 4
12 11 10 6 3 2 4 7 9 10 8 2 3 1 3 1 4 3 3 2 3 2 2 6 5 4 3 2 3 2 3 5 3 3 3 3 2 3 6 7 6 14 13 16 9 11 6
12 10 10 6 3 1 3 6 7 8 3 5 4 4 3 2 2 3 4 1 4 2 2 2 6 1 4 3 4 2 1 1 4 3 3 2 3 3 4 6 10 15 14 11 14 11 8
13 11 10 7 4 2 2 4 7 8 1 4 2 3 4 5 2 4 2 1 2 4 5 4 7 4 2 4 4 4 5 4 5 4 4 2 4 2 5 6 9 7 7 4 3 5 5
15 13 11 9 6 3 2 4 7 9 5 6 3 4 4 2 3 3 1 3 3 2 6 2 4 4 3 4 3 4 3 4 1 6 7 6 4 2 3 3 1 8 3 6 9 10 6
17 14 13 11 8 5 3 4 6 8 8 9 5 3 3 1 1 3 3 4 2 4 2 2 1 1 8 6 4 6 5 7 4 5 2 4 4 3 2 3 6 9 9 2 3 7 4
20 17 14 12 10 7 4 3 5 6 6 8 10 7 6 6 4 1 3 2 4 2 4 1 4 6 7 3 4 3 3 4 5 5 5 5 5 3 3 4 5 8 4 3 0 6 1
22 19 17 14 12 9 6 3 3 4 4 4 5 5 4 3 3 4 3 4 5 3 3 3 1 3 4 2 2 3 4 3 3 3 3 2 1 4 2 6 8 9 6 1 4 5 5
25 21 19 17 14 12 9 5 2 2 4 3 5 4 2 3 3 4 3 4 2 3 4 3 4 3 3 2 3 4 3 5 1 4 4 4 3 4 2 3 8 4 1 5 7 3 6
28 25 21 19 17 15 12 8 5 2 1 3 2 3 3 3 2 3 5 5 4 8 5 2 4 4 5 4 1 2 3 2 4 5 2 3 8 4 9 6 5 4 6 7 6 7 5

GFSGBSN_925_spd_012.txt.gz
Wind_Speed
8 9 11 12 13 13 13 12 9 6 5 5 4 3 3 5 8 9 10 8 6 3 1 2 7 9 3 4 0 11 13 13 14 18 20 5 8 2 4 3 3 4 2 5 3 6 3
7 9 9 11 12 14 13 8 4 4 3 2 2 3 6 9 11 11 10 7 5 3 2 4 10 6 2 7 8 14 15 12 16 17 13 11 3 1 5 3 4 1 1 2 3 2 1
7 8 9 10 12 14 10 5 3 2 1 3 5 7 9 10 11 10 8 6 5 5 5 9 10 5 4 1 11 14 16 12 14 12 4 4 2 5 2 3 4 4 4 6 7 5 2
6 8 9 11 12 14 8 5 3 3 4 5 7 8 9 9 10 9 8 8 7 6 7 8 9 4 1 9 8 14 18 12 11 7 6 4 4 5 5 2 7 6 6 5 6 3 3
5 7 9 10 13 14 8 6 5 5 6 7 7 9 9 11 11 10 9 8 6 7 7 6 4 5 3 8 10 13 16 8 8 13 12 8 7 4 7 5 5 7 1 2 7 4 5
5 7 8 11 14 16 9 7 6 6 8 8 8 9 11 11 9 8 7 7 8 6 5 7 7 6 7 5 7 9 16 7 5 3 5 8 6 5 5 6 1 2 2 3 2 5 7
4 6 8 11 13 16 12 6 6 6 7 8 9 9 10 9 7 6 6 2 5 6 10 4 2 3 3 8 3 10 11 4 5 9 5 6 7 3 3 1 1 1 1 3 3 2 5
4 6 7 9 12 16 15 6 6 5 6 7 7 8 10 11 8 9 7 6 3 2 4 3 2 2 2 3 7 12 11 6 6 3 2 6 4 1 6 5 4 3 2 4 5 3 0
3 6 8 10 12 15 17 8 5 5 4 5 5 6 7 8 9 16 15 7 3 1 5 5 3 2 3 4 4 8 6 2 5 5 5 5 1 4 4 5 6 4 2 3 5 6 1
3 5 8 9 11 14 17 12 5 4 2 4 5 5 4 5 5 6 5 4 4 2 5 7 5 3 4 2 4 4 9 3 7 3 2 3 3 5 5 4 2 3 2 2 5 2 1
1 4 7 9 11 13 16 15 7 4 3 4 5 5 4 2 9 4 3 3 3 3 5 4 5 2 4 6 2 10 7 4 4 4 4 1 3 5 6 2 1 7 4 2 1 3 3
1 2 6 9 11 12 15 16 9 3 4 4 5 7 6 6 7 6 3 3 3 7 0 2 2 4 4 7 5 6 8 8 3 5 6 2 3 3 2 3 2 6 4 5 4 2 3
2 2 5 8 11 12 14 17 11 3 5 5 6 8 6 5 3 3 3 4 5 6 3 2 2 3 5 6 5 6 6 9 4 4 6 6 3 5 3 5 6 9 6 3 5 5 3
3 2 4 7 10 12 14 17 14 5 7 7 8 8 10 8 5 3 3 5 6 3 1 1 2 4 4 3 4 6 3 5 6 5 3 4 5 5 6 1 2 3 4 4 2 1 4
4 2 3 7 10 13 14 16 16 7 8 7 9 10 5 6 4 3 5 5 6 5 1 2 3 4 3 3 4 4 4 2 3 4 3 4 3 5 1 2 1 2 4 2 5 2 3
4 3 3 6 9 12 14 15 17 6 6 5 5 5 5 4 3 4 5 3 1 4 1 2 3 1 2 5 3 4 2 1 2 4 1 1 2 1 4 1 5 6 4 4 3 2 3
6 5 4 6 8 11 14 15 16 9 4 5 3 4 4 4 3 5 4 4 2 2 2 3 2 3 3 2 3 2 1 2 1 2 5 2 2 6 1 5 1 4 3 5 4 3 3
6 6 5 5 7 10 12 15 15 15 3 2 4 3 5 2 4 1 2 1 0 3 6 4 5 3 3 3 4 2 2 2 5 2 3 2 4 3 4 1 1 2 3 4 4 3 1
7 6 6 6 6 9 11 13 15 16 6 3 3 1 3 1 3 2 1 3 3 3 5 3 3 4 4 3 4 3 3 2 5 3 2 1 2 4 8 5 5 4 1 4 5 3 6
9 8 6 5 6 8 10 12 14 15 8 3 3 2 4 4 1 6 4 2 3 4 4 6 3 5 5 5 6 2 2 3 5 3 6 5 2 5 5 7 5 5 4 4 5 3 4
10 8 6 5 5 6 9 11 13 13 8 2 3 1 2 0 4 4 4 2 3 3 3 5 4 4 4 3 3 2 2 4 3 4 3 3 2 4 6 9 8 11 11 8 8 8 6
10 8 6 5 4 4 7 10 11 12 6 5 4 4 3 2 2 4 4 1 3 2 3 2 6 2 3 4 4 3 3 2 5 2 2 3 3 0 4 4 5 7 11 11 9 7 11
12 9 7 6 4 3 5 8 9 10 4 4 2 3 4 4 2 4 2 3 4 5 5 3 8 4 3 4 4 1 4 1 1 1 2 0 3 2 5 4 9 6 4 4 3 6 5
13 10 9 7 4 2 3 6 8 9 4 5 3 4 4 2 3 2 1 2 4 2 6 3 5 5 3 4 3 5 5 5 1 3 3 5 4 2 3 5 2 6 3 7 7 9 9
14 11 10 9 6 3 1 4 6 8 8 7 5 3 3 2 2 3 5 5 3 4 4 3 3 1 6 6 4 6 5 6 3 5 2 3 5 2 2 3 6 12 6 2 2 7 3
17 13 11 10 7 4 0 2 4 5 7 10 11 7 5 6 4 3 4 2 3 2 4 2 2 3 6 3 4 3 3 4 4 4 5 5 5 3 2 4 5 8 3 1 2 6 3
20 17 14 12 10 7 2 1 3 5 5 5 8 6 5 4 3 4 3 5 5 3 3 2 3 3 3 2 3 3 4 2 2 2 2 2 0 4 3 4 8 10 6 1 3 5 4
22 20 18 15 12 9 6 1 2 4 4 4 8 9 4 3 3 4 3 4 3 2 4 3 4 3 3 3 3 3 3 5 2 4 5 4 3 4 2 3 8 3 1 3 6 3 5
25 22 19 17 15 12 9 5 2 2 4 5 4 6 6 5 3 2 3 2 2 5 5 1 3 4 4 4 1 3 3 2 5 3 1 3 7 3 8 7 5 4 7 7 5 6 5

GFSGBSN_925_spd_015.txt.gz
Wind_Speed
7 10 10 11 13 14 14 13 9 8 7 7 7 7 6 7 10 10 12 10 8 6 5 1 4 3 2 5 2 10 7 12 15 18 17 4 5 4 4 3 3 5 2 2 2 6 2
7 9 10 11 12 14 15 9 6 5 5 4 4 5 7 10 12 13 11 10 8 7 4 3 4 5 3 8 4 9 8 10 13 12 10 8 2 2 5 3 3 2 3 2 4 2 2
7 8 9 10 13 16 11 7 4 2 2 2 4 6 9 11 12 11 10 9 9 7 4 4 4 6 6 1 3 8 12 6 8 7 3 3 4 3 2 3 1 2 4 2 9 5 3
6 7 8 10 14 15 9 5 3 2 2 5 7 8 9 10 10 11 11 11 10 7 4 5 7 5 3 7 5 14 15 6 6 5 5 4 9 7 4 2 5 5 4 4 4 7 3
5 6 8 10 13 14 7 5 4 4 6 7 8 9 10 11 11 12 12 10 8 6 6 4 3 3 1 6 7 10 11 3 4 9 10 8 7 5 5 3 4 8 3 3 4 3 5
4 6 8 10 13 14 7 5 5 5 6 7 9 9 10 10 11 11 9 8 8 4 4 5 4 4 6 4 6 9 4 6 6 1 4 9 6 4 5 5 1 0 1 1 3 5 6
3 5 7 9 13 15 9 5 5 5 6 8 9 9 8 7 7 8 8 2 4 5 10 4 2 4 2 7 3 12 8 3 6 8 4 6 8 4 2 1 3 3 2 3 3 2 5
3 5 7 10 13 15 12 5 5 4 6 8 8 9 8 8 12 10 6 6 3 3 5 2 2 2 1 2 5 17 10 5 6 4 2 6 4 1 4 4 2 1 2 1 3 1 1
2 5 7 9 12 15 15 6 4 3 5 7 7 7 7 9 11 11 13 8 4 3 5 4 2 2 2 5 4 8 6 2 5 5 5 5 1 2 1 4 5 1 2 2 3 7 1
2 5 7 10 12 15 15 9 3 3 4 6 5 5 5 6 5 5 4 5 2 3 5 8 5 3 4 2 5 5 8 2 6 3 3 5 3 3 3 3 2 3 2 4 4 1 1
2 4 7 9 11 14 16 12 3 3 4 5 6 4 4 3 10 3 3 2 3 2 5 4 6 3 4 7 2 13 7 7 4 3 2 0 2 4 5 2 1 3 2 1 1 3 2
1 3 6 10 11 13 16 16 4 3 4 5 6 7 7 6 7 6 3 2 1 6 1 2 3 4 5 8 6 7 7 8 2 4 5 2 2 3 2 2 1 4 2 3 3 2 1
2 2 5 8 10 13 16 19 6 5 6 6 7 7 5 4 4 4 2 3 5 5 3 1 3 4 5 5 5 6 7 9 4 3 5 5 3 4 3 4 3 8 3 1 2 2 1
3 1 3 6 9 13 16 20 9 7 8 8 9 9 9 9 5 4 2 5 6 3 2 1 3 4 4 3 4 6 3 5 5 4 3 3 1 4 5 2 2 4 2 2 1 2 4
4 1 2 6 9 12 15 19 14 7 9 11 11 9 5 5 4 3 5 5 6 5 2 4 3 4 2 2 4 4 4 2 3 4 3 2 2 3 4 2 1 1 5 1 5 1 1
3 1 3 6 9 12 15 17 17 3 7 8 5 5 4 3 3 4 5 3 1 4 2 2 3 1 3 3 3 3 2 2 1 4 0 1 2 2 3 1 6 3 4 1 3 2 2
3 1 2 6 9 11 14 16 18 9 4 7 3 4 3 1 3 5 4 3 3 2 1 3 3 3 3 3 3 2 1 3 3 2 4 1 1 2 0 4 1 2 2 5 4 1 1
4 2 1 4 8 11 13 15 17 15 4 5 4 3 4 4 4 1 3 5 2 1 5 4 4 4 3 3 3 3 3 1 4 1 2 1 2 2 2 2 1 2 3 3 2 2 1
6 4 2 3 6 9 12 15 16 17 3 3 3 1 4 2 3 1 1 3 3 2 4 3 3 3 3 3 4 2 3 1 5 2 1 2 2 3 2 2 2 2 2 4 4 2 7
7 4 2 2 4 8 11 13 15 15 8 2 3 2 4 4 1 6 5 2 4 3 4 5 4 4 4 4 5 3 2 1 3 2 6 4 2 4 4 4 2 5 4 4 4 3 5
8 5 3 2 2 6 9 12 13 13 8 2 3 1 1 1 3 4 4 3 4 3 3 4 4 3 5 3 2 2 1 2 2 1 3 2 3 3 5 9 5 8 13 10 12 12 7
9 6 3 2 1 4 8 10 12 11 6 5 4 4 3 2 2 4 4 1 4 3 2 2 6 2 3 4 4 4 3 2 3 2 2 2 2 1 4 6 5 9 12 11 12 14 13
10 7 5 4 2 3 7 9 10 9 4 4 3 3 4 4 2 4 2 4 5 5 4 2 8 5 4 4 4 2 2 3 2 3 2 1 3 1 3 5 9 6 3 4 3 6 4
10 8 6 5 3 2 5 8 10 10 5 5 4 5 4 1 2 3 3 3 4 2 7 3 3 5 2 4 4 4 6 6 4 5 1 4 3 1 3 4 2 1 4 7 9 12 7
11 10 8 7 4 2 3 7 9 11 7 7 5 3 3 2 1 3 5 6 5 5 4 4 3 2 4 5 3 4 4 5 3 7 3 1 4 2 2 3 7 10 2 2 3 6 3
13 11 9 8 6 3 3 5 8 7 6 11 12 8 5 6 4 3 4 2 4 3 3 3 3 4 5 3 3 3 2 3 2 1 4 4 4 1 3 3 5 5 1 2 3 8 1
15 14 11 9 7 5 3 4 6 7 7 5 8 6 4 4 2 3 3 4 4 3 3 1 2 3 3 2 2 2 3 1 2 1 2 1 1 4 5 5 8 9 5 1 2 4 3
18 16 14 12 10 7 5 3 4 6 6 5 9 9 3 3 2 3 4 4 3 2 4 4 3 2 2 3 3 3 2 3 2 2 3 3 3 4 3 4 7 2 2 2 2 7 9
20 18 16 14 11 9 6 4 3 5 5 5 5 8 9 8 3 3 3 4 2 7 5 0 3 4 4 4 1 3 3 2 4 3 2 4 6 3 8 6 2 3 8 6 4 3 4